Location: Joffre
(52.3362°N, 113.5373°W)
Time: 11:40:30
(UTC+00:00)

N. Korean satellite - Pass Details

Date: 03 December 2021
Orbit: 447 x 491 km, 97.3° (Epoch: 21 January)

Event Time Altitude Azimuth Distance (km) Brightness Sun altitude
Rises 00:14:42 0° 181° (S) 2,534 10.6 -7.4°
Reaches altitude 10° 00:16:50 10° 188° (S) 1,652 9.8 -7.7°
Maximum altitude 00:20:14 42° 261° (W) 687 8.0 -8.2°
Drops below altitude 10° 00:23:36 10° 334° (NNW) 1,639 9.3 -8.7°
Sets 00:25:43 0° 342° (NNW) 2,512 10.1 -9.0°
